Location: Tamazert
(32.6352°N, 5.2072°W)
Time: 11:32:56
(UTC+00:00)

Transit 2A - All Passes

Search period start: 05 October 2022 00:00
Search period end: 15 October 2022 00:00
Orbit: 601 x 956 km, 66.7° (Epoch: 05 October)

Date Brightness Start Highest point End Pass type
(mag) Time Alt. Az. Time Alt. Az. Time Alt. Az.
05 Oct - 06:32:39 10° NNE 06:34:20 12° NE 06:36:05 10° ENE daylight
05 Oct - 08:12:55 10° NNW 08:17:50 77° WSW 08:23:16 10° SSE daylight
05 Oct - 21:07:33 10° SSE 21:10:50 20° ESE 21:14:00 10° ENE night (unlit)
05 Oct - 22:49:46 10° WSW 22:53:42 29° WNW 22:57:32 10° N night (unlit)
06 Oct - 07:38:35 10° NNW 07:43:28 68° ENE 07:48:52 10° SSE daylight
06 Oct - 09:24:39 10° W 09:26:11 11° WSW 09:27:47 10° WSW daylight
06 Oct - 20:35:04 10° SE 20:36:36 12° ESE 20:38:07 10° E night (unlit)
06 Oct - 22:14:54 10° SW 22:19:17 48° WNW 22:23:29 10° NNE night (unlit)
07 Oct - 07:04:24 10° N 07:09:05 43° ENE 07:14:12 10° SE daylight
07 Oct - 08:48:30 10° WNW 08:51:58 19° WSW 08:55:38 10° SSW daylight
07 Oct - 21:40:21 10° SSW 21:44:54 81° WNW 21:49:16 10° NNE night (unlit)
08 Oct - 06:30:25 10° N 06:34:39 28° ENE 06:39:14 10° ESE daylight
08 Oct - 08:13:22 10° NW 08:17:41 29° WSW 08:22:21 10° SSW daylight
08 Oct - 21:06:05 10° SSW 21:10:34 59° ESE 21:14:51 10° NE night (unlit)
08 Oct - 22:52:41 10° WNW 22:53:58 11° NW 22:55:16 10° NW night (unlit)
09 Oct - 05:56:39 10° N 06:00:09 19° NE 06:03:52 10° E visible
09 Oct - 07:38:37 10° NW 07:43:23 45° WSW 07:48:36 10° S daylight
09 Oct - 20:32:08 10° S 20:36:15 34° ESE 20:40:13 10° NE night (unlit)
09 Oct - 22:16:24 10° W 22:19:24 17° NW 22:22:20 10° NNW night (unlit)
10 Oct - 05:23:26 10° NNE 05:25:35 13° NE 05:27:48 10° ENE visible
10 Oct - 07:04:05 10° NNW 07:09:03 72° WSW 07:14:32 10° SSE daylight
10 Oct - 19:58:36 10° SSE 20:01:59 21° ESE 20:05:16 10° ENE night (unlit)
10 Oct - 21:41:04 10° WSW 21:44:53 27° WNW 21:48:37 10° N night (unlit)
11 Oct - 06:29:43 10° NNW 06:34:41 73° ENE 06:40:10 10° SSE daylight
11 Oct - 08:16:17 10° W 08:17:23 11° WSW 08:18:31 10° WSW daylight
11 Oct - 19:25:54 10° SE 19:27:46 12° ESE 19:29:35 10° E night (unlit)
11 Oct - 21:06:10 10° SW 21:10:27 44° WNW 21:14:37 10° NNE night (unlit)
12 Oct - 05:55:31 10° NNW 06:00:17 47° ENE 06:05:32 10° SE visible
12 Oct - 07:39:47 10° WNW 07:43:09 18° WSW 07:46:43 10° SSW daylight
12 Oct - 20:31:33 10° SSW 20:36:04 75° WNW 20:40:24 10° NNE visible
13 Oct - 05:21:29 10° N 05:25:51 31° ENE 05:30:36 10° ESE visible
13 Oct - 07:04:35 10° NW 07:08:53 27° WSW 07:13:30 10° SSW daylight
13 Oct - 19:57:15 10° SSW 20:01:42 64° ESE 20:06:01 10° NNE visible
13 Oct - 21:44:32 10° WNW 21:45:11 10° NW 21:45:49 10° NW night (unlit)
14 Oct - 04:47:40 10° N 04:51:22 21° ENE 04:55:19 10° ESE visible
14 Oct - 06:29:48 10° NW 06:34:34 43° WSW 06:39:48 10° S daylight
14 Oct - 19:23:15 10° S 19:27:24 37° ESE 19:31:25 10° NE visible
14 Oct - 21:07:47 10° W 21:10:35 16° NW 21:13:21 10° NNW visible
